This demonstration page uses our WeatherBlox Daily Observations layout. Learn more.

Left ArrowRight Arrow

Hourly Observations for January 26, 2022

Temp ( °F °C ) Dew Point ( °F °C ) Humidity (%) Winds ( mph kmh ) Pressure ( in mb ) Visibility ( mi km ) Precip ( " mm )
12:59 am 00:59 Mostly Cloudy 37 2.8 27 -2.8 67 67 NNE 21 33 30.17 1022 10 16 0.00 0.00
1:59 am 01:59 Mostly Cloudy 36 2.2 26 -3.3 67 67 NNE 21 33 30.18 1022 10 16 0.00 0.00
2:59 am 02:59 Mostly Cloudy 36 2.2 26 -3.3 67 67 NNE 21 33 30.20 1023 10 16 0.00 0.00
3:59 am 03:59 Mostly Cloudy 35 1.7 25 -3.9 67 67 N 20 31 30.22 1023 10 16 0.00 0.00
4:59 am 04:59 Mostly Cloudy 34 1.1 21 -6.1 59 59 NNE 22 35 30.24 1024 10 16 0.00 0.00
5:59 am 05:59 Cloudy 33 0.6 21 -6.1 61 61 N 15 24 30.27 1025 10 16 0.00 0.00
6:59 am 06:59 Cloudy 33 0.6 19 -7.2 56 56 N 21 33 30.32 1027 10 16 0.00 0.00
7:59 am 07:59 Cloudy 33 0.6 21 -6.1 61 61 N 15 24 30.34 1027 10 16 0.00 0.00
8:59 am 08:59 Cloudy 35 1.7 21 -6.1 57 57 NNE 21 33 30.36 1028 10 16 0.00 0.00
9:59 am 09:59 Cloudy 36 2.2 22 -5.6 57 57 N 20 31 30.38 1029 10 16 0.00 0.00
10:59 am 10:59 Mostly Cloudy 36 2.2 20 -6.7 52 52 NNE 21 33 30.39 1029 10 16 0.00 0.00
11:59 am 11:59 Cloudy 37 2.8 19 -7.2 48 48 NNE 18 30 30.37 1028 10 16 0.00 0.00
12:59 pm 12:59 Mostly Cloudy 39 3.9 20 -6.7 46 46 NNE 16 26 30.35 1028 10 16 0.00 0.00
1:59 pm 13:59 Mostly Sunny 39 3.9 21 -6.1 48 48 NNE 14 22 30.35 1028 10 16 0.00 0.00
2:59 pm 14:59 Mostly Sunny 39 3.9 21 -6.1 48 48 NE 15 24 30.35 1028 10 16 0.00 0.00
3:59 pm 15:59 Mostly Sunny 39 3.9 20 -6.7 46 46 NNE 16 26 30.36 1028 10 16 0.00 0.00
4:59 pm 16:59 Mostly Sunny 37 2.8 19 -7.2 48 48 NNE 12 19 30.37 1029 10 16 0.00 0.00
5:59 pm 17:59 Clear 35 1.7 19 -7.2 52 52 NNE 13 20 30.39 1029 10 16 0.00 0.00
6:59 pm 18:59 Clear 36 2.2 18 -7.8 48 48 NNE 13 20 30.42 1030 10 16 0.00 0.00
7:59 pm 19:59 Clear 34 1.1 17 -8.3 50 50 NNE 10 17 30.44 1031 10 16 0.00 0.00
8:59 pm 20:59 Clear 35 1.7 18 -7.8 50 50 NE 15 24 30.45 1031 10 16 0.00 0.00
9:59 pm 21:59 Clear 37 2.8 17 -8.3 44 44 NE 12 19 30.46 1032 10 16 0.00 0.00
10:59 pm 22:59 Clear 36 2.2 14 -10 40 40 NE 13 20 30.46 1032 10 16 0.00 0.00
11:59 pm 23:59 Clear 35 1.7 15 -9.4 44 44 NE 9 15 30.46 1032 10 16 0.00 0.00

Powered by AerisWeather